| time (UTC) | temp C | wind direction | speed KPH | gust KPH | rain 1hr cm | rain 24hr cm | rain mn cm | humidity % | barometer mb |
| 20260502152003 | 19 | 104 | 0.0 | 6.4 | 0.00 | 0.00 | 0.00 | 74 | 1021.6 |
| 20260502151003 | 19 | 202 | 0.0 | 0.0 | 0.00 | 0.00 | 0.00 | 74 | 1021.6 |
| 20260502123004 | 12 | 204 | 0.0 | 0.0 | 0.00 | 0.00 | 1.80 | 92 | 1019.7 |
| 20260502122004 | 11 | 204 | 0.0 | 0.0 | 0.00 | 0.00 | 1.80 | 91 | 1019.7 |
| 20260502121004 | 11 | 204 | 0.0 | 0.0 | 0.00 | 0.00 | 1.80 | 91 | 1019.6 |
| 20260502115004 | 11 | 204 | 0.0 | 0.0 | 0.00 | 0.00 | 1.80 | 91 | 1019.5 |
| 20260502114004 | 11 | 204 | 0.0 | 0.0 | 0.00 | 0.00 | 1.80 | 91 | 1019.3 |
| 20260502113004 | 11 | 204 | 0.0 | 0.0 | 0.00 | 0.00 | 1.80 | 91 | 1019.1 |
| 20260502112004 | 11 | 204 | 0.0 | 1.6 | 0.00 | 0.00 | 1.80 | 91 | 1018.9 |
| 20260502111004 | 12 | 204 | 0.0 | 0.0 | 0.00 | 0.00 | 1.80 | 91 | 1018.8 |
| 20260502110004 | 12 | 204 | 0.0 | 0.0 | 0.00 | 0.00 | 1.80 | 91 | 1018.5 |
| 20260502105004 | 11 | 204 | 0.0 | 0.0 | 0.00 | 0.00 | 1.80 | 91 | 1018.4 |
| 20260502104004 | 11 | 204 | 0.0 | 0.0 | 0.00 | 0.00 | 1.80 | 91 | 1018.5 |
| 20260502101004 | 11 | 206 | 0.0 | 0.0 | 0.00 | 0.00 | 1.80 | 91 | 1018.3 |
| 20260502091004 | 11 | 206 | 0.0 | 0.0 | 0.00 | 0.00 | 1.80 | 91 | 1017.6 |
| 20260502071004 | 12 | 55 | 0.0 | 6.4 | 0.00 | 0.00 | 1.80 | 89 | 1017.2 |
| 20260502070004 | 12 | 49 | 0.0 | 0.0 | 0.00 | 0.00 | 1.80 | 89 | 1017.0 |
| 20260502065004 | 13 | 49 | 0.0 | 4.8 | 0.00 | 0.00 | 1.80 | 88 | 1017.1 |
| 20260502063004 | 13 | 64 | 0.0 | 6.4 | 0.00 | 0.00 | 1.80 | 89 | 1017.2 |
| 20260502062004 | 13 | 71 | 0.0 | 4.8 | 0.00 | 0.00 | 1.80 | 89 | 1017.2 |
| 20260502061004 | 13 | 71 | 0.0 | 8.0 | 0.00 | 0.00 | 1.80 | 89 | 1017.2 |
| 20260502054004 | 13 | 347 | 0.0 | 3.2 | 0.00 | 0.00 | 1.80 | 90 | 1017.0 |
| 20260502053004 | 13 | 357 | 0.0 | 3.2 | 0.00 | 0.00 | 1.80 | 90 | 1017.1 |
| 20260502052004 | 13 | 356 | 0.0 | 6.4 | 0.00 | 0.00 | 1.80 | 89 | 1017.1 |
| 20260502051003 | 13 | 20 | 0.0 | 9.7 | 0.00 | 0.00 | 1.80 | 89 | 1017.2 |
| 20260502050003 | 13 | 20 | 0.0 | 6.4 | 0.00 | 0.00 | 1.80 | 89 | 1017.0 |
| 20260502045004 | 13 | 17 | 0.0 | 12.9 | 0.00 | 0.00 | 1.80 | 89 | 1017.0 |
| 20260502044004 | 13 | 39 | 0.0 | 9.7 | 0.00 | 0.00 | 1.80 | 89 | 1017.0 |
| 20260502043004 | 13 | 47 | 0.0 | 8.0 | 0.00 | 0.00 | 1.80 | 90 | 1017.1 |
| 20260502042003 | 13 | 27 | 0.0 | 9.7 | 0.00 | 0.00 | 1.80 | 90 | 1017.1 |
| 20260502040003 | 13 | 83 | 0.0 | 11.3 | 0.00 | 0.00 | 1.80 | 91 | 1017.0 |
| 20260502035003 | 13 | 56 | 0.0 | 11.3 | 0.00 | 0.00 | 1.80 | 92 | 1016.8 |
| 20260502033003 | 13 | 54 | 3.2 | 6.4 | 0.00 | 0.00 | 1.80 | 91 | 1016.8 |
| 20260502032003 | 13 | 143 | 0.0 | 4.8 | 0.00 | 0.00 | 1.80 | 91 | 1016.7 |
| 20260502031003 | 13 | 29 | 0.0 | 11.3 | 0.00 | 0.00 | 1.80 | 91 | 1016.6 |
| 20260502030003 | 13 | 61 | 0.0 | 12.9 | 0.00 | 0.00 | 1.80 | 91 | 1016.3 |
| 20260502025003 | 13 | 119 | 0.0 | 12.9 | 0.00 | 0.00 | 1.80 | 91 | 1015.9 |
| 20260502023004 | 13 | 17 | 0.0 | 8.0 | 0.00 | 0.00 | 1.80 | 92 | 1015.2 |
| 20260502022003 | 13 | 17 | 0.0 | 9.7 | 0.00 | 0.00 | 1.80 | 92 | 1015.2 |
| 20260502021004 | 13 | 17 | 3.2 | 9.7 | 0.00 | 0.00 | 1.80 | 91 | 1015.2 |
| 20260502020004 | 13 | 14 | 0.0 | 6.4 | 0.00 | 0.00 | 1.80 | 92 | 1015.3 |
| 20260502015005 | 13 | 31 | 0.0 | 8.0 | 0.00 | 0.00 | 1.80 | 92 | 1015.2 |
| 20260502013005 | 13 | 88 | 0.0 | 3.2 | 0.00 | 0.00 | 1.80 | 92 | 1014.8 |
| 20260502012005 | 13 | 214 | 0.0 | 4.8 | 0.00 | 0.00 | 1.80 | 92 | 1014.8 |
| 20260502011004 | 13 | 225 | 0.0 | 14.5 | 0.00 | 0.00 | 1.80 | 92 | 1014.6 |
| 20260502005005 | 13 | 96 | 1.6 | 4.8 | 0.00 | 0.00 | 1.78 | 92 | 1014.2 |
| 20260502004004 | 13 | 57 | 0.0 | 4.8 | 0.00 | 0.00 | 1.78 | 92 | 1014.6 |
| 20260502003004 | 13 | 57 | 0.0 | 14.5 | 0.00 | 0.00 | 1.75 | 91 | 1014.8 |
| 20260502002004 | 14 | 48 | 0.0 | 4.8 | 0.00 | 0.00 | 1.73 | 92 | 1014.3 |
| 20260502000004 | 14 | 46 | 0.0 | 4.8 | 0.00 | 0.00 | 1.70 | 92 | 1013.8 |
| 20260501235004 | 14 | 46 | 0.0 | 1.6 | 0.00 | 0.00 | 1.65 | 91 | 1013.7 |
| 20260501233004 | 15 | 47 | 0.0 | 4.8 | 0.00 | 0.00 | 1.52 | 91 | 1013.5 |
| 20260501231004 | 15 | 44 | 0.0 | 11.3 | 0.00 | 0.00 | 1.47 | 91 | 1011.9 |
| 20260501230004 | 15 | 52 | 0.0 | 6.4 | 0.00 | 0.00 | 1.40 | 91 | 1012.4 |
| 20260501225004 | 15 | 49 | 0.0 | 4.8 | 0.00 | 0.00 | 1.35 | 91 | 1012.8 |
| 20260501224004 | 15 | 47 | 0.0 | 8.0 | 0.00 | 0.00 | 1.35 | 92 | 1011.2 |
| 20260501223004 | 15 | 28 | 1.6 | 11.3 | 0.00 | 0.00 | 1.35 | 92 | 1010.5 |
| 20260501222004 | 15 | 35 | 0.0 | 4.8 | 0.00 | 0.00 | 1.32 | 92 | 1011.2 |
| 20260501220004 | 15 | 38 | 0.0 | 12.9 | 0.00 | 0.00 | 1.27 | 92 | 1011.6 |
| 20260501213005 | 15 | 37 | 6.4 | 9.7 | 0.00 | 0.00 | 1.09 | 92 | 1011.9 |
| 20260501211004 | 16 | 164 | 0.0 | 9.7 | 0.00 | 0.00 | 1.04 | 91 | 1011.6 |
| 20260501210004 | 15 | 98 | 0.0 | 8.0 | 0.00 | 0.00 | 0.99 | 92 | 1011.0 |
| 20260501205004 | 16 | 43 | 0.0 | 16.1 | 0.00 | 0.00 | 0.97 | 92 | 1011.3 |
| 20260501204004 | 16 | 58 | 0.0 | 12.9 | 0.00 | 0.00 | 0.94 | 92 | 1010.9 |
| 20260501203004 | 16 | 64 | 0.0 | 3.2 | 0.00 | 0.00 | 0.94 | 92 | 1011.1 |
| 20260501202004 | 16 | 66 | 0.0 | 0.0 | 0.00 | 0.00 | 0.94 | 92 | 1011.7 |
| 20260501201004 | 16 | 66 | 0.0 | 8.0 | 0.00 | 0.00 | 0.89 | 92 | 1011.7 |
| 20260501200004 | 16 | 185 | 0.0 | 6.4 | 0.00 | 0.00 | 0.81 | 91 | 1012.1 |
| 20260501195004 | 16 | 34 | 0.0 | 4.8 | 0.00 | 0.00 | 0.71 | 91 | 1011.5 |
| 20260501194004 | 16 | 32 | 0.0 | 0.0 | 0.00 | 0.00 | 0.69 | 90 | 1011.8 |
| 20260501192003 | 16 | 32 | 0.0 | 4.8 | 0.00 | 0.00 | 0.69 | 91 | 1011.5 |
| 20260501191004 | 16 | 33 | 0.0 | 0.0 | 0.00 | 0.00 | 0.69 | 91 | 1010.6 |
| 20260501190004 | 16 | 33 | 0.0 | 11.3 | 0.00 | 0.00 | 0.69 | 92 | 1010.8 |
| 20260501185004 | 16 | 41 | 0.0 | 8.0 | 0.00 | 0.00 | 0.69 | 91 | 1010.5 |
| 20260501184003 | 16 | 175 | 0.0 | 8.0 | 0.00 | 0.00 | 0.69 | 91 | 1010.1 |
| 20260501183004 | 16 | 35 | 0.0 | 12.9 | 0.00 | 0.00 | 0.69 | 92 | 1009.5 |
| 20260501182004 | 16 | 24 | 0.0 | 9.7 | 0.00 | 0.00 | 0.69 | 92 | 1008.8 |
| 20260501181003 | 16 | 35 | 0.0 | 9.7 | 0.00 | 0.00 | 0.69 | 92 | 1008.7 |
| 20260501175003 | 16 | 235 | 0.0 | 6.4 | 0.00 | 0.00 | 0.69 | 92 | 1010.8 |
| 20260501174003 | 16 | 229 | 0.0 | 3.2 | 0.00 | 0.00 | 0.69 | 92 | 1011.8 |
| 20260501173004 | 16 | 230 | 0.0 | 6.4 | 0.00 | 0.00 | 0.66 | 92 | 1012.2 |
| 20260501172004 | 16 | 83 | 0.0 | 12.9 | 0.00 | 0.00 | 0.66 | 92 | 1011.9 |
| 20260501170004 | 16 | 22 | 0.0 | 8.0 | 0.00 | 0.00 | 0.66 | 91 | 1012.4 |
| 20260501165004 | 16 | 21 | 0.0 | 3.2 | 0.00 | 0.00 | 0.66 | 92 | 1012.5 |
| 20260501163003 | 16 | 20 | 0.0 | 4.8 | 0.00 | 0.00 | 0.66 | 93 | 1013.6 |
| 20260501162003 | 16 | 20 | 0.0 | 8.0 | 0.00 | 0.00 | 0.64 | 92 | 1014.4 |
| 20260501161004 | 16 | 21 | 0.0 | 0.0 | 0.00 | 0.00 | 0.61 | 92 | 1014.4 |
| 20260501160004 | 16 | 20 | 0.0 | 0.0 | 0.00 | 0.00 | 0.58 | 92 | 1014.5 |
| 20260501155003 | 16 | 20 | 0.0 | 6.4 | 0.00 | 0.00 | 0.56 | 92 | 1014.5 |
| 20260501154003 | 16 | 20 | 0.0 | 4.8 | 0.00 | 0.00 | 0.56 | 92 | 1014.0 |